Home > Weather > Flint > Past weeks

Flag for U.S.A. Weather for the Past 2 Weeks in Flint, Michigan, U.S.A.

Now
18 °F

Sunny.


Feels Like: 4 °F
Forecast: -2 / 19 °F
Wind: 15 mph from South

Location: Bishop International Airport

Current Time: Feb 14, 2016 at 4:15:18 PM

Latest Report: Feb 14, 2016 at 3:53 PM


Visibility: 10 mi

Pressure: 30.36 "Hg

Humidity: 52%

Dew point: 3 °F

Location of FlintLocation

Historic Weather in Flint — Graph

°F

Flint Temperature Yesterday

Maximum temperature yesterday: 14 °F (at 1:53 PM)
Minimum temperature yesterday: -3 °F (at 11:53 PM)
Average temperature yesterday: 6 °F

High & Low Weather Summary for the Past Weeks

 TemperatureHumidityPressure
High54 °F (Feb 3, 4:53 AM)90% (Feb 3, 7:56 AM)30.52 "Hg (Feb 3, 7:56 AM)
Low-8 °F (Feb 14, 7:53 AM)43% (Feb 7, 3:53 PM)29.44 "Hg (Feb 3, 5:53 AM)
Average29 °F69%29.99 "Hg
* Reported Jan 30 2:53 PM — Feb 14 2:53 PM, Flint, Weather by CustomWeather, © 2016

Note: Actual official high and low records may vary slightly from our data, if they occured in-between our weather recording intervals... More about our weather records

Advertising

Flint Weather History for the Previous 24 Hours

 ConditionsComfort  
Time TempWeatherWind HumidityBarometerVisibility
2:53 PM
Sun, Feb 14
18 °FPassing clouds.10 mph49%30.37 "Hg10 mi
1:53 PM18 °FSunny.14 mph45%30.39 "Hg10 mi
12:53 PM17 °FSunny.8 mph45%30.42 "Hg10 mi
11:53 AM16 °FSunny.9 mph45%30.45 "Hg10 mi
10:53 AM13 °FSunny.7 mph59%30.49 "Hg10 mi
9:53 AM6 °FSunny.3 mph79%30.50 "Hg10 mi
8:53 AM-2 °FSunny.3 mph83%30.51 "Hg10 mi
7:53 AM-8 °FSunny.3 mph74%30.52 "Hg9 mi
6:53 AM-2 °FClear.No windN/A30.51 "Hg10 mi
5:53 AM-1 °FClear.No wind75%30.51 "Hg10 mi
4:53 AM2 °FClear.No wind72%30.51 "Hg10 mi
3:53 AM0 °FOvercast.No wind75%30.52 "Hg10 mi
2:53 AM-2 °FOvercast.3 mph78%30.52 "Hg10 mi
1:53 AM-4 °FOvercast.No windN/A30.52 "Hg10 mi
12:53 AM-3 °FOvercast.No wind75%30.51 "Hg10 mi
11:53 PM
Sat, Feb 13
-3 °FClear.No windN/A30.52 "Hg10 mi
10:53 PM-1 °FClear.No wind68%30.52 "Hg10 mi
9:53 PM-2 °FClear.No wind75%30.51 "Hg10 mi
8:53 PM6 °FClear.No wind73%30.51 "Hg10 mi
7:53 PM5 °FPassing clouds.No wind72%30.51 "Hg10 mi
6:53 PM9 °FPartly cloudy.No wind64%30.51 "Hg10 mi
5:53 PM9 °FScattered clouds.6 mph64%30.50 "Hg10 mi
4:53 PM13 °FPartly sunny.8 mph56%30.49 "Hg10 mi
Weather by CustomWeather, © 2016

See weather overviewHow to use our weather pages